Weather History for KFSM - December, 2011

Change the Weather History Date:

Tuesday, December 6, 2011

  Actual Average Record
Temperature  
Mean Temperature 34 °F 43 °F  
Max Temperature 37 °F 54 °F 77 °F (1932)
Min Temperature 31 °F 33 °F 9 °F (1950)
Degree Days  
Heating Degree Days 31 22  
Month to date heating degree days 109 125  
Since 1 July heating degree days 547 690  
Moisture  
Dew Point 24 °F    
Average Humidity 68    
Maximum Humidity 75    
Minimum Humidity 61    
Precipitation  
Precipitation T in 0.12 in 2.25 in (1935)
Month to date precipitation 1.76 0.75  
Year to date precipitation 44.88 42.92  
Sea Level Pressure  
Sea Level Pressure 30.29 in    
Wind  
Wind Speed 9 mph (NNW)    
Max Wind Speed 16 mph    
Max Gust Speed 20 mph    
Visibility 10 miles    
Events Snow    
T = Trace of Precipitation, MM = Missing Value Source: NWS Daily Summary

Daily Weather History Graph

Daily Weather History Graph

Search for Another Location

Airport or City:

Trip Planner

Search our weather history database for the weather conditions in past years. The results will help you decide how hot, cold, wet, or windy it might be!

Date:

Astronomy

Dec. 06, 2011 Rise Set
Actual Time 7:12 AM CST 5:04 PM CST
Civil Twilight 6:43 AM CST 5:32 PM CST
Nautical Twilight 6:12 AM CST 6:04 PM CST
Astronomical Twilight 5:41 AM CST 6:35 PM CST
Moon 2:28 PM CST (12/6) 3:35 AM CST (12/6)
Length of Visible Light 10h 48m
Length of Day
9h 52m
Waxing Gibbous, 87% of the Moon is Illuminated
Dec 6
Waxing Gibbous
Dec 10
Full
Dec 17
Last Quarter
Dec 24
New
Jan 1
First Quarter

Hourly Weather History & Observations

Time (CST) Temp. Windchill Dew Point Humidity Pressure Visibility Wind Dir Wind Speed Gust Speed Precip Events Conditions
12:13 AM 33.8 °F 24.8 °F 26.6 °F 75% 30.30 in 10.0 mi NNW 12.7 mph - N/A   Overcast
12:53 AM 34.0 °F 25.0 °F 26.1 °F 73% 30.30 in 10.0 mi NNW 12.7 mph - N/A   Overcast
1:03 AM 33.8 °F 25.8 °F 26.6 °F 75% 30.29 in 10.0 mi North 10.4 mph - N/A   Overcast
1:17 AM 33.8 °F 24.8 °F 26.6 °F 75% 30.29 in 10.0 mi NNW 12.7 mph - N/A   Overcast
1:38 AM 33.8 °F 24.8 °F 26.6 °F 75% 30.29 in 10.0 mi NNW 12.7 mph - N/A   Overcast
1:53 AM 33.1 °F 24.4 °F 26.1 °F 75% 30.30 in 10.0 mi North 11.5 mph - N/A   Overcast
2:53 AM 34.0 °F 26.6 °F 25.0 °F 70% 30.30 in 10.0 mi North 9.2 mph - N/A   Overcast
3:53 AM 33.1 °F 24.4 °F 25.0 °F 72% 30.30 in 5.0 mi North 11.5 mph - 0.00 in Snow Light Snow
4:53 AM 32.0 °F 24.8 °F 26.1 °F 79% 30.30 in 10.0 mi NNW 8.1 mph - 0.00 in   Overcast
5:53 AM 33.1 °F 28.7 °F 26.1 °F 75% 30.28 in 10.0 mi NNW 4.6 mph - N/A   Overcast
6:53 AM 33.1 °F 27.7 °F 25.0 °F 72% 30.30 in 10.0 mi NNW 5.8 mph - N/A   Overcast
7:53 AM 33.1 °F 26.9 °F 24.1 °F 70% 30.31 in 10.0 mi NNW 6.9 mph - N/A   Overcast
8:53 AM 34.0 °F 27.2 °F 24.1 °F 67% 30.32 in 10.0 mi NNW 8.1 mph - N/A   Overcast
9:53 AM 34.0 °F 25.0 °F 24.1 °F 67% 30.33 in 10.0 mi North 12.7 mph - N/A   Overcast
10:53 AM 35.1 °F 27.4 °F 24.1 °F 64% 30.32 in 10.0 mi NNW 10.4 mph - N/A   Overcast
11:53 AM 35.1 °F 28.6 °F 24.1 °F 64% 30.30 in 10.0 mi NNW 8.1 mph - N/A   Overcast
12:53 PM 35.6 °F 28.0 °F 24.8 °F 65% 30.24 in 10.0 mi North 10.4 mph - N/A   Overcast
1:53 PM 35.1 °F 27.4 °F 24.1 °F 64% 30.24 in 10.0 mi NNW 10.4 mph - N/A   Overcast
2:53 PM 34.0 °F 27.2 °F 24.1 °F 67% 30.24 in 8.0 mi WNW 8.1 mph - N/A   Overcast
3:53 PM 34.0 °F 27.2 °F 23.0 °F 64% 30.25 in 10.0 mi NW 8.1 mph - N/A   Overcast
4:53 PM 34.0 °F 26.6 °F 23.0 °F 64% 30.25 in 10.0 mi WNW 9.2 mph - N/A   Overcast
5:53 PM 33.1 °F 25.5 °F 21.9 °F 64% 30.27 in 10.0 mi NW 9.2 mph - N/A   Overcast
6:53 PM 33.1 °F 24.9 °F 21.9 °F 64% 30.28 in 10.0 mi NNW 10.4 mph - N/A   Overcast
7:53 PM 32.0 °F 24.2 °F 21.0 °F 64% 30.28 in 10.0 mi NW 9.2 mph - N/A   Overcast
8:53 PM 32.0 °F 24.8 °F 21.0 °F 64% 30.27 in 10.0 mi NNW 8.1 mph - N/A   Overcast
9:53 PM 30.9 °F 22.2 °F 21.9 °F 69% 30.28 in 10.0 mi NNW 10.4 mph - N/A   Overcast
10:53 PM 30.9 °F 21.2 °F 21.0 °F 67% 30.28 in 10.0 mi NW 12.7 mph - N/A   Overcast
11:53 PM 32.0 °F 23.6 °F 21.0 °F 64% 30.28 in 10.0 mi NW 10.4 mph - N/A   Overcast